Change the Weather History Date:

Saturday, August 2, 2014

  Actual Average Record
Temperature  
Mean Temperature 66 °F -  
Max Temperature 79 °F 76 °F 90 °F (2001)
Min Temperature 54 °F 49 °F 41 °F (1998)
Cooling Degree Days 1    
Growing Degree Days 16 (Base 50)    
Moisture  
Dew Point 58 °F    
Average Humidity 90    
Maximum Humidity 100    
Minimum Humidity 62    
Precipitation  
Precipitation 0.01 in - - ()
Sea Level Pressure  
Sea Level Pressure 30.21 in    
Wind  
Wind Speed 1 mph (South)    
Max Wind Speed 10 mph    
Max Gust Speed -    
Visibility 4 miles    
Events Fog    
Averages and records for this station are not official NWS values.
T = Trace of Precipitation, MM = Missing Value Source: NWS Daily Summary

Daily Weather History Graph

Daily Weather History Graph

Search for Another Location

Airport or City:

Trip Planner

Search our weather history database for the weather conditions in past years. The results will help you decide how hot, cold, wet, or windy it might be!

Date:

Astronomy

Aug. 02, 2014 Rise Set
Actual Time 5:32 AM EDT 8:08 PM EDT
Civil Twilight 4:59 AM EDT 8:42 PM EDT
Nautical Twilight 4:17 AM EDT 9:23 PM EDT
Astronomical Twilight 3:29 AM EDT 10:11 PM EDT
Moon 12:08 PM EDT (8/2) 11:07 PM EDT (8/2)
Length of Visible Light 15h 42m
Length of Day
14h 36m
Waxing Crescent, 36% of the Moon is Illuminated
Aug 2
Waxing Crescent
Aug 3
First Quarter
Aug 10
Full
Aug 17
Last Quarter
Aug 25
New

Hourly Weather History & Observations

Time (EDT) Temp. Dew Point Humidity Pressure Visibility Wind Dir Wind Speed Gust Speed Precip Events Conditions
12:43 AM 57.0 °F 55.9 °F 96% 30.23 in 2.5 mi Calm Calm - N/A   Clear
12:52 AM 57.0 °F 55.9 °F 96% 30.22 in 3.0 mi Calm Calm - N/A   Clear
1:52 AM 55.0 °F 54.0 °F 96% 30.23 in 6.0 mi Calm Calm - N/A   Clear
2:22 AM 54.0 °F 53.1 °F 97% 30.23 in 4.0 mi Calm Calm - N/A   Partly Cloudy
2:39 AM 57.0 °F 55.0 °F 93% 30.22 in 5.0 mi Calm Calm - N/A   Mostly Cloudy
2:43 AM 55.9 °F 55.0 °F 97% 30.22 in 1.8 mi Calm Calm - N/A   Mostly Cloudy
2:48 AM 55.4 °F 55.4 °F 100% 30.22 in 0.8 mi Calm Calm - N/A   Mist
3:01 AM 55.0 °F 55.0 °F 100% 30.22 in 0.2 mi Calm Calm - N/A Fog Fog
3:14 AM 55.0 °F 55.0 °F 100% 30.22 in 0.2 mi Calm Calm - N/A Fog Fog
3:20 AM 55.0 °F 55.0 °F 100% 30.22 in 0.5 mi Calm Calm - N/A Fog Fog
3:29 AM 55.0 °F 55.0 °F 100% 30.22 in 0.2 mi Calm Calm - N/A Fog Fog
4:07 AM 55.9 °F 55.0 °F 97% 30.22 in 0.8 mi Calm Calm - N/A   Mist
4:31 AM 55.9 °F 55.0 °F 97% 30.22 in 0.2 mi Calm Calm - N/A Fog Fog
4:41 AM 55.9 °F 55.0 °F 97% 30.22 in 0.2 mi Calm Calm - N/A Fog Fog
4:52 AM 55.9 °F 55.9 °F 100% 30.21 in 0.5 mi Calm Calm - N/A Fog Fog
5:04 AM 55.9 °F 55.9 °F 100% 30.22 in 0.2 mi Calm Calm - N/A Fog Fog
5:13 AM 55.9 °F 55.0 °F 97% 30.22 in 0.5 mi Calm Calm - N/A Fog Fog
5:23 AM 55.9 °F 55.9 °F 100% 30.22 in 0.2 mi Calm Calm - N/A Fog Fog
5:34 AM 55.9 °F 55.9 °F 100% 30.22 in 0.5 mi Calm Calm - N/A Fog Fog
5:41 AM 55.9 °F 55.9 °F 100% 30.23 in 0.2 mi Calm Calm - N/A Fog Fog
5:50 AM 55.4 °F 55.4 °F 100% 30.23 in 0.2 mi Calm Calm - N/A Fog Fog
5:52 AM 55.9 °F 55.0 °F 97% 30.22 in 0.2 mi Calm Calm - N/A Fog Fog
6:38 AM 57.0 °F 55.9 °F 96% 30.23 in 0.2 mi Calm Calm - N/A Fog Fog
6:52 AM 57.0 °F 55.9 °F 96% 30.22 in 0.2 mi Calm Calm - N/A Fog Fog
7:39 AM 57.9 °F 57.9 °F 100% 30.24 in 0.5 mi Calm Calm - N/A Fog Fog
7:52 AM 59.0 °F 59.0 °F 100% 30.24 in 0.5 mi Calm Calm - N/A Fog Fog
8:05 AM 59.0 °F 57.9 °F 96% 30.24 in 1.5 mi Calm Calm - N/A   Overcast
8:17 AM 60.1 °F 59.0 °F 96% 30.24 in 0.8 mi Calm Calm - N/A   Overcast
8:28 AM 60.1 °F 60.1 °F 100% 30.24 in 1.5 mi Calm Calm - N/A   Overcast
8:41 AM 61.0 °F 60.1 °F 97% 30.23 in 4.0 mi Calm Calm - N/A   Mostly Cloudy
8:52 AM 63.0 °F 61.0 °F 93% 30.23 in 5.0 mi Calm Calm - N/A   Mostly Cloudy
9:01 AM 63.0 °F 61.0 °F 93% 30.23 in 5.0 mi Calm Calm - N/A   Partly Cloudy
9:52 AM 70.0 °F 63.0 °F 78% 30.22 in 8.0 mi Calm Calm - N/A   Clear
10:52 AM 73.0 °F 63.0 °F 71% 30.22 in 8.0 mi West 3.5 mph - N/A   Partly Cloudy
11:52 AM 75.9 °F 64.9 °F 69% 30.21 in 8.0 mi South 5.8 mph - N/A   Mostly Cloudy
12:52 PM 78.1 °F 64.0 °F 62% 30.18 in 10.0 mi SSE 5.8 mph - N/A   Scattered Clouds
1:52 PM 77.0 °F 63.0 °F 62% 30.17 in 10.0 mi South 5.8 mph - N/A   Overcast
2:52 PM 75.9 °F 64.0 °F 67% 30.17 in 9.0 mi SSW 9.2 mph - N/A   Overcast
3:52 PM 73.9 °F 64.0 °F 71% 30.16 in 9.0 mi South 4.6 mph - 0.01 in   Overcast
4:52 PM 77.0 °F 64.0 °F 64% 30.13 in 10.0 mi SSE 10.4 mph - N/A   Overcast
5:52 PM 75.9 °F 62.1 °F 62% 30.14 in 10.0 mi SSE 10.4 mph - N/A   Partly Cloudy
6:52 PM 72.0 °F 61.0 °F 68% 30.13 in 10.0 mi SSE 8.1 mph - N/A   Clear
7:52 PM 68.0 °F 59.0 °F 73% 30.14 in 10.0 mi Calm Calm - N/A   Clear
8:52 PM 64.0 °F 60.1 °F 87% 30.16 in 9.0 mi Calm Calm - N/A   Mostly Cloudy
9:52 PM 63.0 °F 59.0 °F 87% 30.16 in 10.0 mi Calm Calm - N/A   Mostly Cloudy
10:52 PM 59.0 °F 57.0 °F 93% 30.14 in 8.0 mi Calm Calm - N/A   Clear
11:52 PM 57.0 °F 55.0 °F 93% 30.14 in 6.0 mi Calm Calm - N/A   Clear